Location: Unspecified
(0.0000°N, 0.0000°E)
Time: 02:13:57
(UTC+00:00)

Jawsat - Visible Passes

Search period start: 26 July 2021 00:00
Search period end: 05 August 2021 00:00
Orbit: 730 x 777 km, 100.2° (Epoch: 25 July)

Date Brightness Start Highest point End Pass type
(mag) Time Alt. Az. Time Alt. Az. Time Alt. Az.
26 Jul 10.1 03:34:07 10° E 03:35:04 10° ESE 03:36:00 10° ESE visible
26 Jul 7.6 05:08:33 10° N 05:13:20 43° WNW 05:18:04 10° SSW visible
27 Jul 7.8 04:28:24 10° NNE 04:33:20 57° ESE 04:38:07 11° S visible
28 Jul 9.7 03:50:02 10° ENE 03:53:20 18° ESE 03:56:36 10° SE visible
28 Jul 8.3 05:27:24 10° NNW 05:31:36 27° WNW 05:35:47 10° SW visible
29 Jul 7.2 04:46:35 10° NNE 04:51:37 88° WNW 04:56:36 10° SSW visible
30 Jul 9.1 04:07:22 10° NE 04:11:37 28° ESE 04:15:50 10° SSE visible
31 Jul 7.4 05:05:01 10° N 05:09:54 54° WNW 05:14:45 10° SSW visible
01 Aug 8.2 04:25:08 10° NNE 04:29:54 45° ESE 04:34:38 10° S visible
02 Aug 10.0 03:47:24 10° ENE 03:49:55 14° ESE 03:52:24 10° SE visible
02 Aug 8.0 05:23:43 10° NNW 05:28:11 33° WNW 05:32:37 10° SW visible
03 Aug 7.4 04:43:12 10° NNE 04:48:11 74° ESE 04:53:07 10° S visible
04 Aug 9.4 04:04:20 10° NE 04:08:11 22° ESE 04:12:00 10° SSE visible
04 Aug 8.6 05:42:47 10° NNW 05:46:27 21° WNW 05:50:06 10° WSW visible
